Wind_Speed
6 4 3 2 2 2 3 3 3 2 1 1 0 0 0 0 1 1 2 2 2 2 2 2 3 3 3 3 4 4 4 4 5 5 5 5 5 5 5 5 5 6 6
7 5 4 3 3 3 3 3 4 3 2 2 1 1 1 1 1 0 0 0 0 1 1 1 1 1 2 2 2 3 3 3 3 4 4 4 5 5 5 5 5 6 6
8 6 5 4 4 4 4 4 4 3 3 3 2 2 2 2 2 2 1 1 1 1 1 1 1 0 0 0 0 1 1 2 2 3 3 4 4 5 5 5 5 5 5
9 7 7 6 6 5 5 4 4 4 4 4 3 3 3 3 3 3 3 2 2 2 2 2 2 2 2 1 1 1 0 0 1 1 2 3 3 4 4 4 5 4 5
10 9 9 8 7 6 5 5 5 5 5 5 5 4 4 4 4 4 4 4 4 4 4 4 3 3 3 3 3 2 2 1 1 1 1 1 2 2 3 3 4 4 4
10 10 10 9 8 7 6 6 6 6 6 6 6 6 6 6 5 6 6 6 5 5 6 5 5 5 5 5 5 4 4 3 3 2 2 1 2 2 2 2 2 3 3
10 10 10 9 8 8 7 7 7 7 7 7 7 6 6 6 6 6 7 6 6 6 7 7 6 6 7 7 7 6 6 5 5 4 4 3 3 2 2 1 2 2 2
11 11 11 10 10 9 9 9 9 8 8 8 8 8 7 7 7 7 7 7 7 7 7 7 7 7 7 8 8 8 8 7 7 6 6 5 4 4 3 2 2 2 2
12 13 13 12 12 11 10 10 10 10 10 9 9 9 8 8 8 8 8 7 7 7 7 7 8 8 8 8 8 9 9 9 9 8 8 7 6 6 5 4 4 4 3
13 14 14 13 13 12 11 11 12 12 12 11 10 10 10 9 9 9 9 9 8 8 8 8 8 8 9 10 10 10 10 10 11 10 10 9 8 8 7 7 6 6 5
15 14 15 14 14 14 12 12 13 13 12 12 11 11 11 10 10 10 9 9 9 10 9 9 9 9 10 11 11 11 11 11 11 12 12 11 11 10 10 9 8 8 7
17 17 16 16 16 15 14 14 14 14 14 14 13 11 11 10 10 9 9 9 9 10 10 10 10 10 11 11 12 12 12 13 12 11 13 13 12 12 12 11 11 10 10
18 18 17 17 17 16 15 15 15 15 15 14 13 11 10 10 10 9 8 8 8 8 8 8 9 10 10 10 11 11 11 12 13 13 14 13 14 14 13 13 13 12 12
19 19 18 18 18 17 16 16 15 15 14 13 12 11 11 10 9 8 7 7 7 7 8 8 9 9 10 10 10 10 10 12 13 14 15 15 15 15 15 15 15 14 14
21 20 19 18 18 18 17 17 15 13 12 11 11 11 10 8 7 7 7 6 6 7 7 8 9 9 9 9 9 10 10 12 13 14 15 15 16 17 17 17 17 16 16
22 21 20 19 18 17 16 15 13 12 11 10 11 9 8 7 6 6 6 6 6 7 8 8 9 9 9 9 9 10 10 10 12 13 14 15 16 17 18 18 19 19 18
21 21 20 19 18 17 16 14 13 12 11 10 10 9 7 6 6 6 6 6 7 7 8 8 8 9 9 9 10 10 10 11 12 13 13 14 16 17 18 19 20 20 20
21 20 19 18 18 17 16 14 13 11 9 8 7 6 6 6 6 5 5 6 6 7 8 8 8 9 9 9 10 11 11 12 13 13 14 14 15 17 18 19 20 21 21
19 19 18 16 16 16 15 14 12 11 8 7 6 5 5 5 4 5 5 6 6 7 7 7 8 8 9 9 10 11 12 12 13 14 15 15 15 17 18 19 21 22 23
18 18 17 16 15 15 14 12 10 8 6 5 5 4 4 4 4 4 4 5 5 6 6 6 7 7 8 9 10 11 12 13 15 15 16 16 17 17 18 19 21 22 23
16 16 16 15 14 13 12 11 9 7 6 5 4 4 3 3 3 3 3 4 4 5 6 7 7 8 8 9 10 11 12 13 14 15 16 17 17 18 19 19 20 22 23
14 14 14 14 13 12 11 9 9 8 6 5 3 2 2 2 2 2 3 4 4 5 6 7 8 8 9 9 9 10 11 12 14 15 15 16 17 18 19 19 20 21 22
13 13 13 12 12 12 11 9 9 7 6 5 3 2 1 1 2 2 3 4 4 6 7 8 8 9 9 10 10 11 11 12 13 14 15 16 18 18 19 20 20 21 22
10 11 12 12 12 12 10 9 8 7 6 4 3 2 1 0 1 2 3 3 5 6 7 8 9 10 11 11 12 12 13 13 14 14 15 16 18 19 20 20 21 22 22
10 11 12 12 11 10 10 9 8 7 6 4 4 2 1 1 1 2 3 4 5 7 8 10 11 11 12 12 13 13 14 15 15 16 16 17 18 18 19 20 21 22 23
10 11 11 10 10 10 10 9 8 7 6 5 4 3 1 0 1 3 4 5 6 8 10 11 12 12 13 14 14 14 15 16 16 17 18 18 18 19 19 20 21 22 23
Wind_Direction
279 270 280 300 313 314 303 299 304 301 287 275 245 193 177 136 107 88 91 96 96 94 97 98 93 86 78 74 73 75 75 75 74 74 79 81 81 78 76 79 81 82 86
274 266 269 284 300 311 299 297 295 290 275 267 262 247 247 248 240 241 309 66 107 123 133 121 105 89 78 81 75 78 78 79 77 74 78 83 83 83 86 85 83 86 86
268 261 264 272 279 299 297 288 290 284 268 264 261 262 262 260 258 261 263 281 281 254 232 239 243 240 166 112 66 84 89 87 85 79 83 86 89 92 95 88 80 83 87
262 257 262 269 270 284 290 284 281 275 267 264 261 261 264 268 272 266 262 268 265 260 254 255 263 266 264 263 258 254 207 144 111 98 101 96 94 98 96 91 85 85 92
262 260 262 266 267 274 277 277 277 273 269 269 269 269 270 268 271 271 266 265 261 259 259 258 260 260 261 261 254 250 239 230 221 209 127 117 112 110 102 99 95 95 97
258 260 260 261 262 265 266 269 272 274 271 269 270 273 272 268 268 269 269 266 264 264 263 259 256 255 257 258 255 251 244 231 229 232 227 210 176 158 134 109 119 109 102
253 255 255 255 256 259 263 267 271 272 270 267 268 271 272 271 273 275 273 268 267 267 264 260 256 253 254 255 255 252 248 239 233 232 235 229 216 208 193 174 158 142 117
247 247 249 249 253 257 259 266 272 271 269 268 269 269 271 272 273 276 273 271 270 267 265 264 259 255 257 256 253 250 247 243 238 236 238 235 235 228 226 221 202 194 180
245 247 247 248 254 257 258 263 270 269 268 270 270 269 271 274 272 272 269 265 263 264 266 266 264 260 257 256 255 252 248 245 241 241 242 241 239 235 233 232 225 223 223
249 248 248 249 252 256 258 262 266 268 269 269 270 271 273 273 272 269 267 266 263 263 265 266 267 265 260 257 256 256 253 249 247 245 245 243 242 240 239 237 235 233 229
249 249 248 247 250 254 257 259 264 267 270 268 269 271 270 270 269 267 266 266 266 265 263 264 267 266 264 262 258 256 256 254 253 245 246 245 244 243 243 243 241 239 237
249 247 247 247 249 251 253 256 261 264 266 266 268 270 268 268 267 268 269 270 270 268 263 264 266 268 267 266 260 259 257 253 254 249 249 244 244 245 245 245 245 245 243
249 247 247 249 249 247 250 255 262 264 265 267 270 272 270 272 273 274 273 269 271 271 269 271 275 275 271 268 263 260 260 254 247 249 250 245 244 245 245 245 247 248 246
249 249 248 248 247 246 251 258 262 263 268 269 272 273 272 275 279 278 278 277 274 272 271 275 280 281 276 271 266 261 258 256 250 246 249 249 247 245 246 246 246 248 247
249 248 248 247 247 249 253 259 260 262 268 268 272 276 278 282 284 284 284 282 285 284 282 280 282 279 276 272 265 262 260 259 258 253 251 251 249 248 249 249 246 247 247
248 248 246 247 248 252 254 257 260 262 266 272 277 278 281 286 288 293 290 290 291 290 288 285 285 280 279 274 272 269 266 263 260 257 255 254 252 250 251 249 247 247 247
246 249 246 245 247 250 251 256 259 262 267 270 275 276 280 288 295 291 284 286 290 296 295 290 289 285 281 278 273 272 270 269 265 261 261 261 257 253 253 252 251 249 249
244 244 244 242 243 246 248 251 257 261 268 270 276 276 281 289 295 288 286 291 300 303 300 296 293 290 284 279 278 276 271 271 269 267 267 267 263 258 258 258 257 253 251
240 240 239 236 238 241 243 248 254 255 262 262 267 274 279 292 296 294 294 300 305 309 309 306 301 297 294 290 285 281 278 276 275 273 271 271 269 265 264 261 260 257 253
235 233 234 234 234 235 238 242 247 248 253 260 257 263 277 291 295 300 306 312 317 321 324 324 319 313 307 302 295 288 284 282 280 279 278 275 274 273 270 265 263 261 256
233 232 229 226 225 226 232 237 239 235 242 251 248 253 280 300 308 321 329 331 334 338 338 337 332 326 321 314 306 300 295 289 285 284 282 280 277 274 273 270 268 264 261
228 228 219 218 219 221 226 225 222 223 226 226 220 243 264 307 330 344 344 344 347 348 347 346 344 340 332 325 318 313 307 300 293 289 286 285 283 280 277 275 273 268 264
223 215 209 207 210 216 214 212 211 212 216 218 216 219 242 309 340 351 355 356 358 357 353 348 344 340 336 330 325 320 315 309 303 297 292 288 286 283 281 278 276 274 270
209 204 199 201 208 214 213 209 209 209 217 214 188 187 185 34 12 8 360 359 0 357 351 346 342 339 335 331 327 323 319 314 310 306 299 294 289 286 284 282 279 277 275
200 199 199 200 204 204 203 204 206 205 201 186 173 169 151 78 23 9 356 352 352 349 345 340 337 336 335 333 329 324 319 315 311 308 305 301 296 292 287 284 282 279 277
194 195 195 196 196 197 199 200 197 191 184 176 174 171 169 1 348 348 343 340 340 340 338 335 333 333 333 331 328 324 320 316 312 310 307 305 301 297 293 289 285 282 279
Height
5894 5894 5894 5894 5894 5894 5894 5894 5894 5894 5894 5893 5893 5893 5892 5892 5892 5892 5892 5892 5892 5892 5892 5892 5892 5892 5892 5892 5892 5892 5892 5892 5892 5892 5892 5892 5893 5893 5893 5894 5894 5894 5895
5893 5893 5893 5893 5894 5894 5894 5894 5894 5894 5894 5893 5893 5893 5892 5892 5892 5892 5892 5892 5892 5892 5893 5893 5892 5892 5892 5893 5893 5893 5893 5893 5893 5893 5893 5893 5894 5894 5895 5895 5895 5896 5896
5891 5892 5892 5893 5893 5893 5894 5894 5894 5893 5893 5893 5893 5893 5893 5892 5892 5892 5892 5892 5892 5892 5893 5893 5893 5893 5893 5893 5893 5893 5893 5894 5894 5894 5894 5894 5895 5895 5896 5896 5896 5897 5897
5889 5890 5891 5891 5892 5892 5893 5893 5893 5893 5893 5893 5893 5892 5892 5892 5892 5892 5892 5892 5892 5892 5892 5893 5893 5893 5893 5893 5893 5894 5894 5894 5894 5895 5894 5895 5896 5896 5897 5897 5898 5898 5898
5888 5889 5889 5890 5891 5891 5892 5892 5892 5892 5892 5892 5892 5892 5892 5892 5892 5892 5892 5891 5891 5892 5892 5892 5893 5893 5893 5893 5893 5894 5894 5894 5895 5895 5895 5896 5896 5897 5897 5898 5899 5899 5900
5886 5887 5887 5888 5889 5890 5890 5891 5891 5892 5892 5892 5892 5891 5891 5891 5891 5891 5891 5891 5891 5891 5891 5891 5892 5892 5892 5893 5893 5894 5894 5894 5895 5895 5896 5896 5897 5897 5898 5899 5899 5900 5900
5884 5885 5886 5886 5887 5888 5889 5890 5890 5890 5891 5891 5891 5891 5890 5890 5890 5890 5890 5890 5890 5890 5890 5891 5891 5891 5892 5892 5892 5893 5894 5894 5895 5895 5896 5896 5897 5898 5898 5899 5900 5901 5901
5882 5883 5884 5885 5886 5887 5887 5888 5889 5889 5890 5890 5890 5889 5889 5889 5889 5889 5889 5889 5889 5889 5889 5889 5890 5890 5890 5890 5891 5892 5892 5893 5894 5895 5895 5896 5897 5898 5899 5899 5900 5901 5902
5880 5881 5882 5883 5884 5885 5886 5887 5887 5888 5888 5888 5888 5888 5888 5888 5888 5888 5888 5887 5887 5887 5888 5888 5888 5889 5889 5889 5890 5891 5891 5892 5893 5894 5895 5895 5896 5897 5898 5899 5900 5901 5902
5877 5879 5880 5881 5882 5883 5884 5885 5886 5886 5886 5887 5887 5887 5887 5887 5886 5886 5886 5886 5886 5886 5886 5887 5887 5887 5887 5888 5888 5889 5890 5891 5892 5893 5893 5894 5896 5897 5898 5899 5900 5901 5902
5874 5876 5877 5878 5879 5881 5882 5883 5883 5884 5884 5885 5885 5885 5885 5885 5885 5884 5884 5885 5885 5885 5885 5885 5885 5886 5886 5886 5887 5887 5888 5889 5889 5890 5891 5893 5894 5896 5897 5898 5899 5900 5901
5872 5873 5875 5876 5877 5878 5879 5880 5881 5881 5882 5882 5882 5883 5883 5883 5883 5883 5883 5883 5883 5883 5883 5883 5883 5884 5884 5884 5885 5885 5886 5887 5888 5888 5889 5891 5893 5894 5896 5897 5898 5899 5900
5869 5870 5872 5873 5874 5876 5877 5877 5878 5879 5879 5879 5880 5880 5880 5881 5881 5881 5881 5881 5880 5881 5881 5881 5882 5882 5882 5882 5883 5883 5884 5885 5885 5887 5887 5888 5890 5892 5894 5895 5896 5898 5899
5866 5867 5869 5870 5871 5873 5874 5875 5876 5877 5877 5878 5878 5878 5879 5879 5879 5879 5879 5879 5879 5879 5879 5879 5879 5880 5880 5880 5881 5881 5882 5883 5883 5885 5885 5886 5888 5890 5891 5893 5894 5896 5897
5863 5864 5866 5867 5868 5871 5872 5873 5874 5875 5875 5876 5877 5877 5877 5877 5878 5878 5878 5878 5877 5877 5877 5877 5878 5878 5878 5878 5879 5879 5880 5881 5881 5882 5883 5884 5886 5887 5889 5890 5891 5893 5894
5859 5861 5863 5865 5866 5868 5870 5871 5872 5873 5874 5874 5875 5875 5876 5876 5876 5876 5876 5876 5876 5876 5876 5876 5876 5876 5876 5877 5877 5877 5878 5879 5879 5880 5881 5882 5883 5884 5886 5887 5888 5890 5891
5856 5858 5859 5861 5864 5866 5867 5869 5870 5871 5872 5873 5873 5874 5874 5874 5875 5875 5875 5875 5874 5874 5874 5874 5874 5874 5874 5875 5875 5875 5876 5876 5877 5878 5878 5879 5880 5881 5882 5883 5885 5886 5887
5853 5855 5856 5858 5861 5863 5865 5867 5868 5869 5870 5871 5872 5872 5872 5873 5873 5873 5874 5873 5873 5873 5873 5873 5872 5872 5872 5872 5873 5873 5874 5874 5874 5875 5876 5876 5877 5878 5879 5880 5881 5882 5883
5849 5851 5853 5856 5858 5860 5863 5865 5866 5868 5869 5869 5870 5871 5871 5871 5872 5872 5872 5872 5872 5872 5872 5871 5871 5871 5870 5870 5871 5871 5871 5871 5872 5872 5872 5873 5873 5874 5875 5876 5877 5878 5879
5846 5848 5850 5853 5856 5858 5861 5862 5864 5866 5867 5868 5869 5870 5870 5870 5871 5871 5871 5871 5871 5871 5871 5870 5870 5869 5869 5868 5869 5869 5869 5869 5869 5869 5869 5869 5870 5870 5871 5871 5872 5873 5874
5843 5846 5848 5850 5853 5856 5859 5861 5863 5864 5866 5867 5868 5869 5869 5870 5870 5870 5870 5870 5870 5870 5870 5869 5868 5868 5867 5867 5867 5866 5866 5866 5866 5866 5866 5866 5866 5867 5867 5867 5868 5868 5870
5841 5843 5846 5849 5852 5854 5857 5859 5861 5863 5865 5866 5867 5868 5868 5869 5869 5870 5870 5870 5869 5869 5869 5868 5867 5867 5866 5865 5865 5864 5864 5864 5863 5863 5862 5862 5862 5862 5862 5863 5863 5864 5865
5839 5842 5845 5848 5851 5853 5856 5858 5860 5862 5864 5865 5866 5867 5868 5868 5869 5869 5869 5869 5869 5868 5868 5867 5867 5866 5865 5864 5863 5862 5862 5861 5860 5860 5859 5859 5858 5858 5858 5858 5859 5859 5859
5838 5841 5844 5847 5850 5852 5855 5857 5859 5861 5863 5865 5866 5867 5868 5868 5869 5869 5869 5869 5868 5868 5867 5866 5865 5864 5863 5862 5861 5860 5859 5858 5857 5857 5856 5855 5854 5854 5854 5854 5854 5854 5854
5838 5840 5843 5846 5848 5851 5854 5856 5859 5860 5862 5864 5866 5867 5868 5868 5868 5869 5868 5868 5868 5867 5867 5865 5864 5863 5862 5860 5859 5858 5856 5855 5854 5853 5852 5852 5851 5850 5849 5849 5848 5848 5848
5837 5840 5842 5845 5848 5851 5853 5855 5858 5860 5862 5864 5865 5866 5867 5868 5868 5868 5868 5868 5867 5866 5865 5864 5863 5862 5860 5858 5857 5855 5854 5853 5851 5850 5849 5847 5846 5845 5844 5844 5843 5843 5842